TimeAST,TemperatureF,Dew PointF,Humidity,Sea Level PressureIn,VisibilityMPH,Wind Direction,Wind SpeedMPH,Gust SpeedMPH,PrecipitationIn,Events,Conditions,WindDirDegrees,DateUTC
12:00 AM,82.4,75.2,79,29.89,6.2,SSE,9.2,-,N/A,,Partly Cloudy,150,2013-09-05 04:00:00
1:00 AM,82.4,77.0,84,29.89,6.2,SSE,4.6,-,N/A,,Scattered Clouds,150,2013-09-05 05:00:00
2:00 AM,82,76,76,29.86,31,South,4.6,,,,Scattered Clouds,170,2013-09-05 06:00:00
2:00 AM,82.4,75.2,79,29.86,6.2,South,8.1,-,N/A,,Partly Cloudy,170,2013-09-05 06:00:00
3:00 AM,82.4,75.2,79,29.83,6.2,SSE,4.6,-,N/A,,Partly Cloudy,160,2013-09-05 07:00:00
4:00 AM,80.6,75.2,84,29.83,6.2,Variable,1.2,-,N/A,,Partly Cloudy,0,2013-09-05 08:00:00
5:00 AM,80,75,81,29.85,19,SSE,3.5,,,,Scattered Clouds,150,2013-09-05 09:00:00
5:00 AM,80.6,75.2,84,29.83,6.2,SE,3.5,-,N/A,,Partly Cloudy,130,2013-09-05 09:00:00
6:00 AM,80.6,77.0,89,29.86,6.2,SE,4.6,-,N/A,,Scattered Clouds,140,2013-09-05 10:00:00
7:00 AM,80.6,77.0,89,29.86,6.2,SE,3.5,-,N/A,,Partly Cloudy,130,2013-09-05 11:00:00
8:00 AM,81,76,82,29.90,25,SSE,5.8,,,,Partly Cloudy,150,2013-09-05 12:00:00
8:00 AM,80.6,77.0,89,29.89,6.2,SE,4.6,-,N/A,,Partly Cloudy,130,2013-09-05 12:00:00
9:00 AM,86.0,78.8,79,29.92,6.2,ENE,4.6,-,N/A,,Partly Cloudy,60,2013-09-05 13:00:00
10:00 AM,86.0,78.8,79,29.92,6.2,East,9.2,-,N/A,,Partly Cloudy,90,2013-09-05 14:00:00
11:00 AM,86,78,72,29.91,25,East,10.4,,,,Scattered Clouds,100,2013-09-05 15:00:00
11:00 AM,86.0,78.8,79,29.92,6.2,East,9.2,-,N/A,,Partly Cloudy,90,2013-09-05 15:00:00
12:00 PM,87.8,78.8,75,29.89,6.2,East,10.4,-,N/A,,Scattered Clouds,80,2013-09-05 16:00:00
1:00 PM,89.6,78.8,70,29.86,6.2,East,12.7,-,N/A,,Partly Cloudy,80,2013-09-05 17:00:00
2:00 PM,89,78,64,29.84,31,East,15.0,,,,Scattered Clouds,90,2013-09-05 18:00:00
2:00 PM,89.6,78.8,70,29.83,6.2,East,12.7,-,N/A,,Partly Cloudy,80,2013-09-05 18:00:00
3:00 PM,89.6,78.8,70,29.80,6.2,East,12.7,-,N/A,,Partly Cloudy,80,2013-09-05 19:00:00
4:00 PM,89.6,77.0,66,29.77,6.2,East,9.2,-,N/A,,Partly Cloudy,90,2013-09-05 20:00:00
5:00 PM,88,78,66,29.78,31,East,13.8,,,,Clear,100,2013-09-05 21:00:00
5:00 PM,87.8,77.0,70,29.77,-9999.0,East,10.4,-,N/A,,Clear,100,2013-09-05 21:00:00
6:00 PM,87.8,78.8,75,29.77,-9999.0,East,9.2,-,N/A,,Clear,90,2013-09-05 22:00:00
7:00 PM,86.0,78.8,79,29.80,-9999.0,ESE,11.5,-,N/A,,Clear,110,2013-09-05 23:00:00
8:00 PM,85,77,71,29.85,31,ESE,8.1,,,,Mostly Cloudy,120,2013-09-06 00:00:00
8:00 PM,84.2,77.0,79,29.83,-9999.0,ESE,9.2,-,N/A,,Clear,120,2013-09-06 00:00:00
9:00 PM,84.2,77.0,79,29.86,-9999.0,ESE,8.1,-,N/A,,Clear,110,2013-09-06 01:00:00
10:00 PM,84.2,77.0,79,29.89,-9999.0,ESE,8.1,-,N/A,,Clear,110,2013-09-06 02:00:00
11:00 PM,84,77,74,29.89,31,SE,6.9,,,,Mostly Cloudy,130,2013-09-06 03:00:00
11:00 PM,84.2,77.0,79,29.89,-9999.0,ESE,10.4,-,N/A,,Clear,120,2013-09-06 03:00:00